EW1744 Weather Reports


time (UTC)temp
C
wind
direction
speed
KPH
gust
KPH
rain 1hr
cm
rain 24hr
cm
rain mn
cm
humidity
%
barometer
mb
20260507223619 16 285 6.4 17.7 0.00 0.00 0.00 30 1005.4
20260507223121 16 224 4.8 16.1 0.00 0.00 0.00 30 1005.4
20260507222621 17 319 4.8 14.5 0.00 0.00 0.00 31 1005.4
20260507222120 16 202 6.4 22.5 0.00 0.00 0.00 31 1005.2
20260507221621 17 350 6.4 22.5 0.00 0.00 0.00 30 1005.1
20260507221121 17 310 6.4 22.5 0.00 0.00 0.00 30 1005.0
20260507220621 17 330 6.4 22.5 0.00 0.00 0.00 29 1005.1
20260507220122 17 344 4.8 16.1 0.00 0.00 0.00 30 1005.0
20260507215622 17 305 3.2 12.9 0.00 0.00 0.00 30 1005.0
20260507215121 17 282 3.2 16.1 0.00 0.00 0.00 31 1004.9
20260507214620 17 310 6.4 19.3 0.00 0.00 0.00 30 1004.9
20260507214344 16 15 8.0 24.1 0.00 0.00 0.00 31 1005.0
20260507213618 17 309 6.4 24.1 0.00 0.00 0.00 30 1005.0
20260507213118 17 338 6.4 20.9 0.00 0.00 0.00 30 1004.9
20260507212617 17 283 6.4 20.9 0.00 0.00 0.00 31 1004.9
20260507212118 17 300 6.4 20.9 0.00 0.00 0.00 31 1005.0
20260507211619 17 326 3.2 20.9 0.00 0.00 0.00 30 1005.0
20260507211344 17 24 4.8 14.5 0.00 0.00 0.00 30 1004.9
20260507210618 17 295 4.8 14.5 0.00 0.00 0.00 31 1004.9
20260507210118 17 342 6.4 19.3 0.00 0.00 0.00 31 1005.0
20260507205618 17 323 6.4 19.3 0.00 0.00 0.00 31 1005.0
20260507205118 17 344 4.8 12.9 0.00 0.00 0.00 32 1004.9
20260507204619 17 290 4.8 14.5 0.00 0.00 0.00 32 1004.8
20260507204119 17 345 3.2 14.5 0.00 0.00 0.00 32 1004.8
20260507203617 17 335 6.4 19.3 0.00 0.00 0.00 32 1004.9
20260507203115 17 290 6.4 19.3 0.00 0.00 0.00 31 1004.7
20260507202617 17 311 4.8 16.1 0.00 0.00 0.00 31 1004.8
20260507202117 18 6 4.8 16.1 0.00 0.00 0.00 32 1004.9
20260507201617 17 276 4.8 16.1 0.00 0.00 0.00 33 1004.9
20260507201118 18 345 4.8 16.1 0.00 0.00 0.00 33 1004.9
20260507200838 17 301 4.8 16.1 0.00 0.00 0.00 32 1004.9
20260507200117 17 288 4.8 16.1 0.00 0.00 0.00 33 1005.0
20260507195617 17 325 4.8 16.1 0.00 0.00 0.00 33 1005.0
20260507195117 17 323 3.2 16.1 0.00 0.00 0.00 33 1005.1
20260507194618 17 342 4.8 25.7 0.00 0.00 0.00 33 1005.0
20260507194114 17 307 4.8 25.7 0.00 0.00 0.00 33 1005.1
20260507193614 17 349 6.4 25.7 0.00 0.00 0.00 35 1005.1
20260507193112 17 321 6.4 25.7 0.00 0.00 0.00 33 1005.3
20260507192616 17 356 6.4 25.7 0.00 0.00 0.00 34 1005.3
20260507192610 17 297 6.4 25.7 0.00 0.00 0.00 32 1005.2
20260507191612 17 290 6.4 24.1 0.00 0.00 0.00 34 1005.3
20260507191111 17 281 4.8 24.1 0.00 0.00 0.00 33 1005.3
20260507190611 17 310 6.4 24.1 0.00 0.00 0.00 34 1005.2
20260507190338 17 276 6.4 22.5 0.00 0.00 0.00 32 1005.3
20260507185611 17 276 4.8 17.7 0.00 0.00 0.00 33 1005.4
20260507185112 17 273 6.4 17.7 0.00 0.00 0.00 33 1005.3
20260507185102 17 271 6.4 17.7 0.00 0.00 0.00 32 1005.3
20260507184554 18 304 4.8 14.5 0.00 0.00 0.00 30 1005.3
20260507183835 18 249 4.8 12.9 0.00 0.00 0.00 31 1005.4
20260507183108 18 359 3.2 11.3 0.00 0.00 0.00 34 1005.3
20260507182608 17 307 4.8 20.9 0.00 0.00 0.00 33 1005.3
20260507182344 17 293 4.8 20.9 0.00 0.00 0.00 36 1005.3
20260507181608 17 292 8.0 20.9 0.00 0.00 0.00 36 1005.5
20260507181108 17 341 6.4 20.9 0.00 0.00 0.00 36 1005.4
20260507180608 17 266 6.4 17.7 0.00 0.00 0.00 37 1005.4
20260507180338 17 196 4.8 17.7 0.00 0.00 0.00 39 1005.4
20260507175609 17 291 4.8 16.1 0.00 0.00 0.00 37 1005.5
20260507175109 17 8 4.8 20.9 0.00 0.00 0.00 40 1005.3
20260507174609 17 279 4.8 20.9 0.00 0.00 0.00 37 1005.4
20260507174108 16 299 6.4 20.9 0.00 0.00 0.00 39 1005.4
20260507173606 16 283 6.4 20.9 0.00 0.00 0.00 40 1005.4
20260507173105 16 21 4.8 19.3 0.00 0.00 0.00 41 1005.4
20260507172602 16 269 4.8 19.3 0.00 0.00 0.00 41 1005.4
20260507172103 16 269 6.4 19.3 0.00 0.00 0.00 41 1005.6
20260507171831 16 291 6.4 19.3 0.00 0.00 0.00 42 1005.6
20260507171103 16 292 6.4 17.7 0.00 0.00 0.00 48 1005.8
20260507170602 16 352 6.4 22.5 0.00 0.00 0.00 49 1005.8
20260507170115 16 301 6.4 22.5 0.00 0.00 0.00 46 1005.8
20260507165603 16 279 6.4 22.5 0.00 0.00 0.00 45 1005.9
20260507165327 16 287 4.8 22.5 0.00 0.00 0.00 51 1005.9
20260507164604 16 272 3.2 20.9 0.00 0.00 0.00 52 1006.1
20260507164104 16 321 4.8 20.9 0.00 0.00 0.00 53 1006.1
20260507163605 15 256 8.0 20.9 0.00 0.00 0.00 53 1006.2
20260507163332 15 314 6.4 20.9 0.00 0.00 0.00 52 1006.2
20260507162826 16 358 4.8 17.7 0.00 0.00 0.00 51 1006.2
20260507162322 16 231 3.2 11.3 0.00 0.00 0.00 50 1006.2
20260507161601 16 275 3.2 11.3 0.00 0.00 0.00 50 1006.3
20260507161321 16 349 4.8 11.3 0.00 0.00 0.00 50 1006.3
20260507160829 16 278 4.8 11.3 0.00 0.00 0.00 47 1006.4
20260507160113 16 191 4.8 17.7 0.00 0.00 0.00 51 1006.4
20260507155601 15 299 4.8 17.7 0.00 0.00 0.00 52 1006.5
20260507155322 15 338 4.8 14.5 0.00 0.00 0.00 52 1006.5
20260507154601 15 349 4.8 14.5 0.00 0.00 0.00 50 1006.6
20260507154102 15 258 4.8 14.5 0.00 0.00 0.00 51 1006.8
20260507153601 16 299 3.2 14.5 0.00 0.00 0.00 49 1006.7
20260507153101 15 265 4.8 17.7 0.00 0.00 0.00 53 1006.7
20260507152601 15 227 4.8 17.7 0.00 0.00 0.00 54 1006.9
20260507152058 15 290 4.8 16.1 0.00 0.00 0.00 52 1007.0
20260507151559 15 341 4.8 16.1 0.00 0.00 0.00 52 1007.0
20260507151059 15 298 6.4 17.7 0.00 0.00 0.00 52 1007.1
20260507150821 15 296 8.0 17.7 0.00 0.00 0.00 53 1007.1
20260507150108 15 108 6.4 22.5 0.00 0.00 0.00 54 1007.1
20260507145600 15 287 4.8 22.5 0.00 0.00 0.00 52 1007.1
20260507145059 15 299 4.8 22.5 0.00 0.00 0.00 54 1007.1
20260507144825 15 289 4.8 22.5 0.00 0.00 0.00 53 1007.0
20260507144100 15 260 3.2 11.3 0.00 0.00 0.00 54 1007.0
20260507143600 15 312 3.2 11.3 0.00 0.00 0.00 53 1007.0
20260507143100 15 31 4.8 11.3 0.00 0.00 0.00 54 1007.0
20260507142600 15 359 3.2 11.3 0.00 0.00 0.00 53 1007.0
20260507142100 15 293 1.6 11.3 0.00 0.00 0.00 55 1006.9
20260507141600 15 20 1.6 11.3 0.00 0.00 0.00 55 1006.9
20260507141100 14 305 1.6 11.3 0.00 0.00 0.00 56 1007.0
20260507140601 14 306 3.2 9.7 0.00 0.00 0.00 57 1006.9
20260507140111 14 277 3.2 11.3 0.00 0.00 0.00 58 1007.0
20260507135601 14 293 1.6 11.3 0.00 0.00 0.00 56 1007.0
20260507135057 14 303 3.2 11.3 0.00 0.00 0.00 59 1007.1
20260507134557 14 317 3.2 11.3 0.00 0.00 0.00 57 1007.1
20260507134058 13 330 1.6 11.3 0.00 0.00 0.00 60 1007.2
20260507133558 13 300 1.6 11.3 0.00 0.00 0.00 61 1007.4
20260507133057 13 314 3.2 11.3 0.00 0.00 0.00 62 1007.4
20260507132557 13 295 3.2 14.5 0.00 0.00 0.00 63 1007.5
20260507132057 13 305 3.2 14.5 0.00 0.00 0.00 62 1007.5
20260507131557 12 333 3.2 14.5 0.00 0.00 0.00 62 1007.6
20260507131057 12 212 3.2 14.5 0.00 0.00 0.00 63 1007.6
20260507130557 12 283 3.2 11.3 0.00 0.00 0.00 65 1007.7
20260507130329 12 304 3.2 11.3 0.00 0.00 0.00 66 1007.7
20260507125559 12 326 3.2 9.7 0.00 0.00 0.00 66 1007.7
20260507125055 11 324 3.2 11.3 0.00 0.00 0.00 66 1007.6
20260507124552 11 286 3.2 11.3 0.00 0.00 0.00 68 1007.8
20260507124052 11 305 3.2 9.7 0.00 0.00 0.00 70 1007.8
20260507123552 11 304 3.2 9.7 0.00 0.00 0.00 69 1008.0
20260507123050 11 271 3.2 9.7 0.00 0.00 0.00 71 1007.9
20260507122550 11 299 3.2 9.7 0.00 0.00 0.00 72 1008.0
20260507122051 11 310 1.6 9.7 0.00 0.00 0.00 73 1008.0
20260507121816 11 302 1.6 9.7 0.00 0.00 0.00 73 1007.9
20260507121051 10 295 1.6 9.7 0.00 0.00 0.00 75 1007.9
20260507120551 10 295 1.6 9.7 0.00 0.00 0.00 76 1007.8
20260507120106 10 288 1.6 6.4 0.00 0.00 0.00 76 1008.0
20260507115551 10 291 1.6 8.0 0.00 0.00 0.00 77 1007.9
20260507115052 10 264 1.6 8.0 0.00 0.00 0.00 78 1007.8
20260507114812 9 303 0.0 8.0 0.00 0.00 0.00 80 1007.6
20260507114053 9 329 1.6 8.0 0.00 0.00 0.00 80 1007.5
20260507113553 9 349 1.6 8.0 0.00 0.00 0.00 79 1007.5
20260507113307 9 314 1.6 8.0 0.00 0.00 0.00 80 1007.6
20260507112554 9 2 1.6 9.7 0.00 0.00 0.00 80 1007.6
20260507112306 9 351 3.2 9.7 0.00 0.00 0.00 80 1007.8
20260507111542 9 305 1.6 9.7 0.00 0.00 0.00 80 1007.9
20260507111042 9 329 3.2 14.5 0.00 0.00 0.00 80 1007.5
20260507110543 9 234 1.6 14.5 0.00 0.00 0.00 80 1007.6
20260507110053 9 291 1.6 14.5 0.00 0.00 0.00 80 1007.2
20260507105545 9 321 1.6 14.5 0.00 0.00 0.00 80 1007.5
20260507105041 9 286 1.6 14.5 0.00 0.00 0.00 80 1007.2
20260507104807 9 340 3.2 14.5 0.00 0.00 0.00 81 1007.3
20260507104040 9 321 3.2 14.5 0.00 0.00 0.00 80 1007.1
20260507103539 9 288 1.6 14.5 0.00 0.00 0.00 81 1007.2
20260507103307 9 309 1.6 9.7 0.00 0.00 0.00 81 1007.3
20260507102536 9 296 1.6 9.7 0.00 0.00 0.00 81 1007.2
20260507102031 9 298 1.6 9.7 0.00 0.00 0.00 82 1007.3
20260507101532 9 298 1.6 9.7 0.00 0.00 0.00 82 1007.3
20260507101253 9 295 3.2 9.7 0.00 0.00 0.00 82 1007.2
20260507100526 9 324 3.2 9.7 0.00 0.00 0.00 82 1007.6
20260507100027 9 309 1.6 9.7 0.00 0.00 0.00 82 1007.1
20260507095526 9 294 1.6 9.7 0.00 0.00 0.00 83 1007.3
20260507095026 9 271 1.6 9.7 0.00 0.00 0.00 83 1007.4
20260507094526 9 310 3.2 11.3 0.00 0.00 0.00 83 1007.3
20260507094024 9 309 3.2 11.3 0.00 0.00 0.00 83 1007.2
20260507093524 9 295 1.6 8.0 0.00 0.00 0.00 84 1007.1
20260507093023 9 298 1.6 11.3 0.00 0.00 0.00 84 1007.1
20260507092525 9 11 1.6 11.3 0.00 0.00 0.00 84 1007.1
20260507092034 9 299 1.6 9.7 0.00 0.00 0.00 85 1007.3
20260507091531 9 326 1.6 9.7 0.00 0.00 0.00 85 1006.8
20260507091018 9 286 1.6 9.7 0.00 0.00 0.00 85 1007.1
20260507090246 9 303 0.0 8.0 0.00 0.00 0.00 85 1006.9
20260507085516 9 302 1.6 8.0 0.00 0.00 0.00 85 1007.2
20260507085016 9 294 1.6 8.0 0.00 0.00 0.00 84 1006.8
20260507085005 9 327 0.0 8.0 0.00 0.00 0.00 84 1006.7
20260507084015 9 313 0.0 4.8 0.00 0.00 0.00 84 1006.6
20260507083515 9 335 1.6 4.8 0.00 0.00 0.00 83 1006.8
20260507083016 10 294 1.6 4.8 0.00 0.00 0.00 83 1006.7
20260507082514 10 262 1.6 8.0 0.00 0.00 0.00 82 1006.4
20260507082014 10 39 3.2 12.9 0.00 0.00 0.00 81 1006.5
20260507081737 10 335 3.2 12.9 0.00 0.00 0.00 80 1006.6
20260507081012 10 33 4.8 14.5 0.00 0.00 0.00 79 1006.5
20260507080514 10 335 4.8 14.5 0.00 0.00 0.00 79 1006.8
20260507080012 10 319 4.8 14.5 0.00 0.00 0.00 80 1006.6
20260507075513 10 302 4.8 14.5 0.00 0.00 0.00 80 1006.5
20260507075231 10 288 3.2 12.9 0.00 0.00 0.00 80 1006.3
20260507074738 10 333 4.8 12.9 0.00 0.00 0.00 81 1006.1
20260507074008 10 278 4.8 12.9 0.00 0.00 0.00 81 1006.3
20260507073508 10 291 3.2 12.9 0.00 0.00 0.00 81 1006.3
20260507073008 10 300 3.2 12.9 0.00 0.00 0.00 80 1006.0
20260507072507 10 301 4.8 12.9 0.00 0.00 0.00 80 1006.2
20260507072009 10 287 4.8 14.5 0.00 0.00 0.00 80 1006.3
20260507071507 10 291 4.8 14.5 0.00 0.00 0.00 80 1006.6
20260507071002 10 315 3.2 14.5 0.00 0.00 0.00 80 1006.1
20260507070956 10 317 3.2 14.5 0.00 0.00 0.00 80 1006.0
20260507070004 10 329 3.2 12.9 0.00 0.00 0.00 80 1006.1
20260507065503 11 345 4.8 12.9 0.00 0.00 0.00 80 1006.1
20260507065016 11 269 4.8 12.9 0.00 0.00 0.00 80 1006.3
20260507064502 11 300 4.8 12.9 0.00 0.00 0.00 79 1005.8
20260507064002 11 288 4.8 9.7 0.00 0.00 0.00 79 1005.9
20260507063728 11 306 3.2 9.7 0.00 0.00 0.00 79 1005.9
20260507063003 11 274 3.2 12.9 0.00 0.00 0.00 80 1005.8
20260507062728 11 329 3.2 12.9 0.00 0.00 0.00 80 1005.7
20260507062239 11 298 4.8 14.5 0.00 0.00 0.00 79 1005.7
20260507061504 11 319 4.8 14.5 0.00 0.00 0.00 79 1005.8
20260507060957 11 301 3.2 16.1 0.00 0.00 0.00 80 1005.7
20260507060457 11 288 4.8 16.1 0.00 0.00 0.00 80 1005.7
20260507055957 11 20 3.2 12.9 0.00 0.00 0.00 80 1006.1
20260507055457 11 358 3.2 11.3 0.00 0.00 0.00 80 1006.0
20260507054958 11 307 1.6 11.3 0.00 0.00 0.00 80 1006.0
20260507054459 11 332 1.6 6.4 0.00 0.00 0.00 81 1006.1
20260507054001 11 348 1.6 11.3 0.00 0.00 0.00 81 1005.9
20260507053501 11 342 1.6 11.3 0.00 0.00 0.00 81 1006.1
20260507053001 11 304 1.6 11.3 0.00 0.00 0.00 81 1006.1
20260507052500 11 320 1.6 11.3 0.00 0.00 0.00 81 1005.9
20260507051958 12 323 1.6 11.3 0.00 0.00 0.00 81 1005.8
20260507051458 12 321 1.6 11.3 0.00 0.00 0.00 82 1005.5
20260507051216 12 319 3.2 11.3 0.00 0.00 0.00 81 1005.7
20260507050453 12 321 3.2 11.3 0.00 0.00 0.00 81 1005.7
20260507045951 12 333 3.2 11.3 0.00 0.00 0.00 81 1005.7
20260507045450 12 283 3.2 11.3 0.00 0.00 0.00 81 1005.7
20260507044948 12 311 3.2 11.3 0.00 0.00 0.00 82 1005.5
20260507044447 12 325 1.6 9.7 0.00 0.00 0.00 82 1005.7
20260507043947 12 46 1.6 12.9 0.00 0.00 0.00 82 1005.8
20260507043713 12 284 3.2 12.9 0.00 0.00 0.00 82 1006.0
20260507042947 12 274 3.2 12.9 0.00 0.00 0.00 82 1005.9
20260507042447 13 257 3.2 12.9 0.00 0.00 0.00 81 1005.8
20260507041947 13 340 3.2 9.7 0.00 0.00 0.00 81 1005.5
20260507041447 13 327 1.6 8.0 0.00 0.00 0.00 81 1005.4
20260507040948 13 336 3.2 22.5 0.00 0.00 0.00 81 1005.4
20260507040446 13 293 4.8 22.5 0.00 0.00 0.00 82 1005.3
20260507040203 13 319 6.4 22.5 0.00 0.00 0.00 82 1005.2
20260507035707 13 329 6.4 22.5 0.00 0.00 0.00 83 1005.1
20260507034942 14 294 4.8 14.5 0.00 0.00 0.00 85 1005.0
20260507034700 14 309 3.2 20.9 0.00 0.00 0.00 86 1004.9
20260507034211 15 345 4.8 20.9 0.00 0.00 0.00 87 1004.8
20260507033443 15 309 6.4 20.9 0.00 0.00 0.00 87 1004.8
20260507032956 15 311 4.8 20.9 0.00 0.00 0.00 88 1005.0
20260507032930 15 284 3.2 12.9 0.00 0.00 0.00 89 1005.0
20260507031943 15 281 1.6 8.0 0.00 0.00 0.00 90 1004.9
20260507031442 15 322 3.2 11.3 0.00 0.00 0.00 90 1004.8
20260507031204 15 327 4.8 11.3 0.00 0.00 0.00 90 1004.6
20260507030441 15 215 3.2 11.3 0.00 0.00 0.00 90 1004.4
20260507025941 15 288 3.2 11.3 0.00 0.00 0.00 90 1004.4
20260507025441 15 300 3.2 9.7 0.00 0.00 0.00 90 1004.3
20260507024941 15 266 3.2 8.0 0.00 0.00 0.00 90 1004.3
20260507024713 15 213 1.6 11.3 0.00 0.00 0.00 90 1004.3
20260507023955 15 288 3.2 11.3 0.00 0.00 0.00 90 1004.3
20260507023442 15 295 3.2 11.3 0.00 0.00 0.00 90 1004.3
20260507022940 15 297 3.2 11.3 0.00 0.00 0.00 90 1004.4
20260507022440 15 283 3.2 9.7 0.00 0.00 0.00 90 1004.4
20260507022201 15 335 3.2 9.7 0.00 0.00 0.00 90 1004.3
20260507021440 15 270 3.2 9.7 0.00 0.00 0.00 90 1004.5
20260507020939 15 298 3.2 9.7 0.00 0.00 0.00 90 1004.5
20260507020439 15 255 3.2 9.7 0.00 0.00 0.00 90 1004.6
20260507015939 15 248 3.2 9.7 0.00 0.00 0.00 90 1004.7
20260507015439 15 217 3.2 9.7 0.00 0.00 0.00 91 1004.6
20260507014938 15 330 3.2 9.7 0.00 0.00 0.00 91 1004.7
20260507014438 15 257 3.2 9.7 0.00 0.00 0.00 91 1004.8
20260507013938 15 263 3.2 9.7 0.00 0.00 0.00 91 1004.8
20260507013438 15 295 3.2 11.3 0.00 0.00 0.00 91 1004.8
20260507012938 15 262 3.2 11.3 0.00 0.00 0.00 92 1004.9
20260507012438 15 234 1.6 9.7 0.00 0.00 0.00 92 1004.8
20260507012155 15 264 1.6 9.7 0.00 0.00 0.00 91 1004.9
20260507011703 14 276 0.0 4.8 0.00 0.00 0.00 91 1005.0
20260507010937 14 264 0.0 4.8 0.00 0.00 0.00 91 1004.9
20260507010708 14 262 0.0 1.6 0.00 0.00 0.00 91 1004.9
20260507010417 14 238 0.0 1.6 0.00 0.00 0.00 91 1005.0
20260507005437 14 266 0.0 1.6 0.00 0.00 0.00 91 1005.0
20260507005155 14 266 0.0 1.6 0.00 0.00 0.00 91 1005.1
20260507004436 14 266 0.0 1.6 0.00 0.00 0.00 91 1005.1
20260507004206 14 162 0.0 1.6 0.00 0.00 0.00 91 1005.0
20260507003659 14 143 0.0 1.6 0.00 0.00 0.00 91 1004.9
20260507002936 14 220 0.0 1.6 0.00 0.00 0.00 91 1004.9
20260507002436 14 226 0.0 1.6 0.00 0.00 0.00 91 1005.0
20260507002211 14 140 0.0 1.6 0.00 0.00 0.00 91 1004.8
20260507001718 14 220 0.0 3.2 0.00 0.00 0.00 91 1004.9
20260507001154 14 262 0.0 3.2 0.00 0.00 0.00 91 1004.8
20260507000435 14 205 0.0 3.2 0.00 0.00 0.00 91 1004.8
20260506235933 14 203 0.0 3.2 0.00 0.00 0.00 91 1004.7
20260506235434 14 248 0.0 6.4 0.00 0.00 0.00 91 1004.7
20260506234934 14 153 0.0 6.4 0.00 0.00 0.00 90 1004.7
20260506234434 14 187 0.0 6.4 0.00 0.00 0.00 90 1004.9
20260506233931 14 180 0.0 6.4 0.00 0.00 0.00 90 1004.9
20260506233431 14 141 0.0 4.8 0.00 0.00 0.00 90 1004.8
20260506232933 14 138 0.0 4.8 0.00 0.00 0.00 90 1004.9
20260506232432 14 250 0.0 4.8 0.00 0.00 0.00 90 1005.0
20260506231932 14 219 0.0 3.2 0.00 0.00 0.00 90 1005.0
20260506231433 14 176 0.0 1.6 0.00 0.00 0.00 90 1005.0
20260506230932 14 132 0.0 1.6 0.00 0.00 0.00 90 1005.0
20260506230429 14 263 0.0 3.2 0.00 0.00 0.00 90 1005.0
20260506225929 14 240 0.0 3.2 0.00 0.00 0.00 90 1005.0
20260506225429 14 257 0.0 3.2 0.00 0.00 0.00 90 1005.0
20260506224929 14 234 0.0 3.2 0.00 0.00 0.00 90 1005.0
20260506224429 14 274 0.0 3.2 0.00 0.00 0.00 90 1005.0
20260506224415 14 210 0.0 1.6 0.00 0.00 0.00 90 1005.1